#timestamp,LO_Frequency,Hit 
1501243215.7,286046991.6,N
1501243235.5,286046990.6,N
1501243255.3,286046991.2,N
1501243275.2,286046988.9,N
1501243295.9,286046989.0,N
1501243315.7,286046987.2,N
1501243335.5,286046987.6,N
1501243355.4,286046987.6,N
1501243375.2,286046987.9,N
1501243395.0,286046987.9,N
1501243395.9,286046987.9,N
1501243415.8,286046988.0,N
1501243435.6,286046986.2,N
1501243455.4,286046986.8,N
1501243475.3,286046982.1,Y
1501243495.1,286046996.0,N
1501243496.0,286046996.0,N
1501243515.8,286046994.9,N
1501243535.7,286046997.2,N
1501243555.5,286046995.0,N
1501243575.3,286046995.5,N
1501243595.2,286046995.6,N
1501243615.9,286046993.7,N
1501243635.7,286046996.1,N
1501243655.5,286046995.2,N
1501243675.4,286046996.7,N
1501243695.2,286046999.5,N
1501243715.0,286046999.6,N
1501243715.9,286046999.6,N
1501243735.8,286046997.8,N
1501243755.6,286046995.1,N
1501243775.4,286046995.5,N
1501243795.3,286046993.8,N
1501243815.1,286046993.4,N
1501243816.0,286046993.4,N
1501243835.8,286046996.3,N
1501243855.7,286046995.9,N
1501243875.5,286046996.3,N
1501243895.3,286046991.8,N
1501243915.2,286046990.1,N
1501243935.9,286046993.2,N
1501243955.7,286046991.3,N
1501243975.5,286046991.4,N
1501243995.4,286046988.6,N
1501244015.2,286046993.1,N
1501244035.0,286046994.8,N
1501244035.9,286046994.8,N
1501244055.8,286046991.9,N
1501244075.6,286046993.1,N
1501244095.4,286046988.6,N
1501244115.3,286046988.9,N
1501244135.1,286046989.1,N
1501244136.0,286046989.1,N
1501244155.8,286046989.2,N
1501244175.7,286046989.0,N
1501244195.5,286046988.5,N
1501244215.3,286046990.0,N
1501244235.1,286046985.7,N
1501244255.9,286046987.7,N
1501244275.7,286046983.9,Y
1501244295.5,286046999.5,N
1501244315.4,286046999.0,N
1501244335.2,286046999.3,N
1501244355.0,286046994.9,N
1501244355.9,286046994.9,N
1501244375.8,286046995.0,N
1501244395.6,286046997.8,N
1501244415.4,286046997.2,N
1501244435.3,286046997.2,N
1501244455.1,286046995.3,N
1501244456.0,286046995.3,N
1501244475.8,286046997.5,N
1501244495.7,286046996.1,N
1501244515.5,286046993.3,N
1501244535.3,286046993.5,N
1501244555.1,286046991.7,N
1501244575.9,286046991.8,N
1501244595.7,286046990.4,N
1501244615.5,286046990.4,N
1501244635.4,286046991.0,N
1501244655.2,286046990.8,N
1501244675.0,286046990.6,N
1501244675.9,286046990.6,N
1501244695.8,286046993.1,N
1501244715.6,286046990.2,N
1501244735.4,286046990.3,N
1501244755.3,286046991.3,N
1501244775.1,286046988.5,N
1501244776.0,286046988.5,N
1501244795.8,286046988.8,N
1501244815.7,286046989.9,N
1501244835.5,286046985.4,N
1501244855.3,286046987.9,N
1501244875.1,286046987.2,N
1501244895.9,286046989.2,N
1501244915.7,286046989.8,N
1501244935.5,286046990.0,N
1501244955.4,286046990.0,N
1501244975.2,286046989.1,N
1501244995.0,286046991.6,N
1501244995.9,286046991.6,N
1501245015.8,286046989.6,N
1501245035.6,286046987.3,N
1501245055.4,286046987.9,N
1501245075.2,286046987.9,N
1501245095.1,286046985.9,N
1501245096.0,286046985.9,N
1501245115.8,286046986.5,N
1501245135.7,286046984.3,Y
1501245155.5,286046998.0,N
1501245175.3,286046995.1,N
1501245195.1,286046994.9,N
1501245215.9,286046996.8,N
1501245235.7,286046997.3,N
1501245255.5,286046997.8,N
1501245275.4,286046995.9,N
1501245295.2,286046995.5,N
1501245315.0,286046995.8,N
1501245315.9,286046995.8,N
1501245335.8,286046997.7,N
1501245355.6,286046996.5,N
1501245375.4,286046996.8,N
1501245395.3,286046996.6,N
1501245415.1,286046996.1,N
1501245416.0,286046996.1,N
1501245435.8,286046995.1,N
1501245455.6,286046994.1,N
1501245475.5,286046993.9,N
1501245495.3,286046993.7,N
1501245515.1,286046991.8,N
1501245535.9,286046990.1,N
1501245555.7,286046993.0,N
1501245575.5,286046990.7,N
1501245595.4,286046992.0,N
1501245615.2,286046992.9,N
1501245635.0,286046990.7,N
1501245635.9,286046990.7,N
1501245655.8,286046993.2,N
1501245675.6,286046990.5,N
1501245695.4,286046992.8,N
1501245715.3,286046989.0,N
1501245735.1,286046990.5,N
1501245736.0,286046990.5,N
1501245755.8,286046990.3,N
1501245775.6,286046989.0,N
1501245795.5,286046991.6,N
1501245815.3,286046991.6,N
1501245835.1,286046990.9,N
1501245855.9,286046988.9,N
1501245875.7,286046989.1,N
1501245895.5,286046989.5,N
1501245915.4,286046989.6,N
1501245935.2,286046989.9,N
1501245955.0,286046987.0,N
1501245955.9,286046987.0,N
1501245975.8,286046987.1,N
1501245995.6,286046987.0,N
1501246015.4,286046988.2,N
1501246035.2,286046989.9,N
1501246055.1,286046987.4,N
1501246056.0,286046987.4,N
1501246075.8,286046987.9,N
1501246095.7,286046985.6,Y
1501246115.5,286046995.6,N
1501246135.3,286046995.4,N
1501246155.1,286046995.0,N
1501246175.9,286046997.8,N
1501246195.7,286046994.9,N
1501246215.5,286046993.6,N
1501246235.4,286046993.8,N
1501246255.2,286046993.3,N
1501246275.0,286046998.0,N
1501246275.9,286046998.0,N
1501246295.8,286046997.5,N
1501246315.6,286046996.4,N
1501246335.4,286046993.7,N
1501246355.3,286046992.2,N
1501246375.1,286046994.8,N
1501246376.0,286046994.8,N
1501246395.8,286046994.8,N
1501246415.6,286046996.3,N
1501246435.5,286046995.4,N
1501246455.3,286046996.1,N
1501246475.1,286046994.7,N
1501246495.9,286046994.1,N
1501246515.7,286046992.8,N
1501246535.5,286046990.5,N
1501246555.4,286046990.9,N
1501246575.2,286046992.8,N
1501246595.0,286046994.5,N
1501246595.9,286046994.5,N
1501246615.8,286046990.4,N
1501246635.6,286046990.1,N
1501246655.4,286046993.2,N
1501246675.3,286046993.1,N
1501246695.1,286046990.3,N
1501246696.0,286046990.3,N
1501246715.8,286046990.1,N
1501246735.6,286046991.2,N
1501246755.5,286046989.3,N
1501246775.3,286046989.2,N
1501246795.1,286046989.6,N
